User: anonymous   Login
Location: Theydon Bois
(51.6750°N, 0.1050°E)
Time: 20:54:59
(UTC+01:00)
Language:

SL-16 R/B - Orbit

View from above orbital plane
View from above orbital plane
View from above satellite
View from above satellite

Ground track
Ground track

The orbit data is extracted from the following two-line orbital elements,

1 28353U 04021B   17293.20350539  .00000126  00000-0  90924-4 0  9994
2 28353  71.0016 176.2845 0005382 344.7760  15.3199 14.14207683689838
Epoch (UTC): 20 October 2017 04:53:02
Eccentricity: 0.0005382
inclination: 71.0016°
perigee height: 841 km
apogee height: 849 km
right ascension of ascending node: 176.2845°
argument of perigee: 344.7760°
revolutions per day: 14.14207683
mean anomaly at epoch: 15.3199°
orbit number at epoch: 68983

The dashed part of the orbit path shows where the satellite is in the earth's shadow,  

DLR